Regional Weather Roundup
Issued by NWS Cleveland, OH

Home | Current Version | Previous Version | Text Only | Print | Product List | Glossary Off
Versions: 1 2 3 4 5 6 7 8 9 10 11 12 13 14 15 16 17 18 19 20 21 22 23 24 25 26 27 28 29 30 31 32 33 34 35 36 37 38 39 40 41 42 43 44 45 46 47 48 49 50

000
ASUS41 KCLE 012112
RWRCLE
OHIO REGIONAL WEATHER ROUNDUP
NATIONAL WEATHER SERVICE WILMINGTON, OH
500 PM EDT SUN MAY 01 2016

NOTE: "FAIR" INDICATES FEW OR NO CLOUDS BELOW 12,000 FEET WITH NO
SIGNIFICANT WEATHER AND/OR OBSTRUCTIONS TO VISIBILITY.

OHZ001>008-015>018-024>027-034-035-043-044-012200-
   NORTHWEST OHIO

CITY           SKY/WX    TMP DP  RH WIND       PRES   REMARKS
DEFIANCE       CLOUDY    57  51  80 N9        29.96S
FINDLAY        CLOUDY    59  51  75 NE15      29.93F
TOLEDO EXPRESS CLOUDY    56  50  80 N6        29.96S
TOLEDO EXEC    CLOUDY    55  49  80 NE6       29.98S
LIMA           FAIR      69  62  78 N10       29.91F
$$

OHZ009>014-019>023-028>033-038-089-012200-
   NORTHEAST OHIO

CITY           SKY/WX    TMP DP  RH WIND       PRES   REMARKS
CLE-HOPKINS    CLOUDY    54  50  86 N8        29.98R
CLE-LAKEFRONT  CLOUDY    51  48  89 NW6       29.96R FOG
CUY CO. ARPT   CLOUDY    57  52  82 N7        29.96R
LORAIN-ELYRIA  CLOUDY    54  48  80 NE9       29.97R
ASHTABULA      CLOUDY    54  51  90 N7        29.96R
AKRON-CANTON   PTSUNNY   71  57  61 SW8       29.92S
WOOSTER        CLOUDY    69  58  67 S7        29.91F
MANSFIELD      PTSUNNY   68  61  78 N12       29.93S
YOUNGSTOWN     PTSUNNY   71  58  63 NW8       29.90S
$$

OHZ042-051>053-060>062-070>072-077>081-012200-
  SOUTHWEST OHIO

CITY           SKY/WX    TMP DP  RH WIND       PRES   REMARKS
CINC-COVINGTON FAIR      78  56  46 W7        29.88F
CINC-LUNKEN    PTSUNNY   79  60  52 SW9       29.88F
HAMILTON       FAIR      79  57  46 W7        29.88F
DAYTON         FAIR      76  55  48 W8        29.90F
WRIGHT-PAT AFB MOSUNNY   77  55  46 W8        29.88F
DAYTON GENERAL FAIR      77  53  43 SW5       29.87F
WILMINGTON     FAIR      77  58  51 SW7       29.88F
$$

OHZ036-037-039>041-045>050-054>059-063>069-073>076-082>088-012200-
  CENTRAL AND SOUTHEAST OHIO

CITY           SKY/WX    TMP DP  RH WIND       PRES   REMARKS
COLUMBUS       FAIR      75  57  53 SW10G18   29.88F
OSU AIRPORT    PTSUNNY   71  59  65 N7        29.89F
BOLTON FIELD   MOSUNNY   75  61  60 W7        29.89F
RICKENBACK AFB FAIR      76  58  54 W10       29.88F
NEWARK         FAIR      79  56  45 SW12      29.87F
MARION         HVY RAIN  65  60  84 N6        29.92S
LANCASTER      FAIR      76  58  53 NW6       29.89F
ZANESVILLE     PTSUNNY   78  59  51 NW6       29.89F
NEW PHILLY     FAIR      70  57  63 NW7       29.91F
$$



USA.gov is the U.S. government's official web portal to all federal, state and local government web resources and services.